Bryce Canyon, UT

2:18 PM MST on December 06, 2019 (GMT -0700)
Bryce Canyon

Weather History for KBCE - October, 2019

Change the Weather History Date:

Saturday, October 19, 2019

  Actual Average Record
Temperature  
Mean Temperature 39 °F -  
Max Temperature 61 °F 58 °F 73 °F (2003)
Min Temperature 19 °F 24 °F 9 °F (1976)
Degree Days  
Heating Degree Days 26    
Moisture  
Dew Point 9 °F    
Average Humidity 33    
Maximum Humidity 60    
Minimum Humidity 13    
Precipitation  
Precipitation 0.00 in - - ()
Sea Level Pressure  
Sea Level Pressure 29.87 in    
Wind  
Wind Speed 9 mph (West)    
Max Wind Speed 22 mph    
Max Gust Speed 31 mph    
Visibility 10 miles    
Events      
Averages and records for this station are not official NWS values.
T = Trace of Precipitation, MM = Missing Value Source: NWS Daily Summary

Daily Weather History Graph

Daily Weather History Graph

Search for Another Location

Airport or City:

Astronomy

Oct. 19, 2019 Rise Set
Actual Time 7:40 AM MDT 6:45 PM MDT
Civil Twilight 7:14 AM MDT 7:12 PM MDT
Nautical Twilight 6:43 AM MDT 7:42 PM MDT
Astronomical Twilight 6:13 AM MDT 8:13 PM MDT
Moon 11:02 PM MDT (10/19) 1:11 PM MDT (10/19)
Length of Visible Light 11h 58m
Length of Day
11h 05m
Waning Gibbous, 69% of the Moon is Illuminated
Oct 19
Waning Gibbous
Oct 21
Last Quarter
Oct 27
New
Nov 4
First Quarter
Nov 12
Full

Hourly Weather History & Observations

Time (MDT) Temp. Windchill Dew Point Humidity Pressure Visibility Wind Dir Wind Speed Gust Speed Precip Events Conditions
12:53 AM 23.0 °F 13.1 °F 10.0 °F 58% 29.96 in 10.0 mi West 9.2 mph - N/A   Clear
1:53 AM 21.9 °F 14.5 °F 9.0 °F 58% 29.96 in 10.0 mi WSW 5.8 mph - N/A   Clear
2:53 AM 19.9 °F - 8.1 °F 60% 29.95 in 10.0 mi Calm Calm - N/A   Clear
3:53 AM 21.9 °F 17.2 °F 10.0 °F 60% 29.94 in 10.0 mi West 3.5 mph - N/A   Clear
4:53 AM 21.0 °F 10.6 °F 9.0 °F 60% 29.94 in 10.0 mi West 9.2 mph - N/A   Clear
5:53 AM 21.0 °F 14.6 °F 8.1 °F 57% 29.96 in 10.0 mi West 4.6 mph - N/A   Clear
6:53 AM 21.0 °F 13.4 °F 7.0 °F 55% 29.99 in 10.0 mi WNW 5.8 mph - N/A   Clear
7:53 AM 19.9 °F 13.4 °F 6.1 °F 55% 30.01 in 10.0 mi West 4.6 mph - N/A   Clear
8:53 AM 30.0 °F 26.5 °F 8.1 °F 40% 30.01 in 10.0 mi West 3.5 mph - N/A   Clear
9:53 AM 42.1 °F - 10.0 °F 27% 29.97 in 10.0 mi Calm Calm - N/A   Clear
10:53 AM 51.1 °F - 9.0 °F 18% 29.91 in 10.0 mi WNW 5.8 mph - N/A   Clear
11:53 AM 54.0 °F - 12.0 °F 19% 29.90 in 10.0 mi West 12.7 mph 28.8 mph N/A   Clear
12:53 PM 57.0 °F - 10.9 °F 16% 29.88 in 10.0 mi WNW 11.5 mph 18.4 mph N/A   Clear
1:53 PM 59.0 °F - 9.0 °F 14% 29.83 in 10.0 mi WSW 19.6 mph 26.5 mph N/A   Clear
2:53 PM 59.0 °F - 10.0 °F 14% 29.80 in 10.0 mi West 20.7 mph 31.1 mph N/A   Clear
3:53 PM 59.0 °F - 7.0 °F 13% 29.78 in 10.0 mi West 21.9 mph 29.9 mph N/A   Clear
4:53 PM 55.9 °F - 10.0 °F 16% 29.78 in 10.0 mi WSW 18.4 mph 27.6 mph N/A   Clear
5:53 PM 51.1 °F - 10.0 °F 19% 29.80 in 10.0 mi WSW 18.4 mph 29.9 mph N/A   Clear
6:53 PM 48.0 °F - 10.0 °F 22% 29.80 in 10.0 mi WSW 18.4 mph - N/A   Clear
7:53 PM 46.9 °F - 9.0 °F 21% 29.82 in 10.0 mi West 20.7 mph - N/A   Clear
8:53 PM 46.0 °F 39.0 °F 8.1 °F 21% 29.79 in 10.0 mi WSW 17.3 mph - N/A   Partly Cloudy
9:53 PM 46.9 °F - 10.0 °F 22% 29.72 in 10.0 mi West 16.1 mph - N/A   Overcast
10:53 PM 48.0 °F - 12.0 °F 24% 29.68 in 10.0 mi West 11.5 mph - N/A   Overcast
11:53 PM 45.0 °F 39.3 °F 10.9 °F 25% 29.68 in 10.0 mi West 11.5 mph - N/A   Mostly Cloudy